2024/04/07 00:00:00,74.9, 7.9
2024/04/07 00:10:00,74.9, 7.6
2024/04/07 00:20:00,74.9, 7.8
2024/04/07 00:30:00,74.9, 7.2
2024/04/07 00:40:00,74.9, 7.4
2024/04/07 00:50:00,74.9, 7.2
2024/04/07 01:00:00,74.9, 7.2
2024/04/07 01:10:00,74.9, 7.0
2024/04/07 01:20:00,74.9, 6.9
2024/04/07 01:30:00,74.9, 6.8
2024/04/07 01:40:00,74.9, 6.8
2024/04/07 01:50:00,74.9, 6.7
2024/04/07 02:00:00,74.9, 6.7
2024/04/07 02:10:00,74.9, 6.2
2024/04/07 02:20:00,74.9, 6.0
2024/04/07 02:30:00,74.9, 6.2
2024/04/07 02:40:00,74.9, 6.2
2024/04/07 02:50:00,74.9, 6.2
2024/04/07 03:00:00,74.9, 6.6
2024/04/07 03:10:00,74.9, 6.5
2024/04/07 03:20:00,74.9, 6.5
2024/04/07 03:30:00,74.9, 6.6
2024/04/07 03:40:00,74.9, 7.0
2024/04/07 03:50:00,74.9, 6.6
2024/04/07 04:00:00,74.9, 6.9
2024/04/07 04:10:00,74.9, 6.7
2024/04/07 04:20:00,74.9, 6.6
2024/04/07 04:30:00,74.9, 6.7
2024/04/07 04:40:00,74.9, 6.7
2024/04/07 04:50:00,74.9, 7.0
2024/04/07 05:00:00,74.9, 6.6
2024/04/07 05:10:00,74.9, 6.5
2024/04/07 05:20:00,74.9, 6.8
2024/04/07 05:30:00,74.9, 6.9
2024/04/07 05:40:00,74.9, 6.8
2024/04/07 05:50:00,74.9, 6.7
2024/04/07 06:00:00,74.9, 7.0
2024/04/07 06:10:00,74.9, 7.0
2024/04/07 06:20:00,74.9, 7.1
2024/04/07 06:30:00,74.9, 7.3
2024/04/07 06:40:00,74.9, 7.5
2024/04/07 06:50:00,74.9, 8.5
2024/04/07 07:00:00,74.9, 8.6
2024/04/07 07:10:00,74.9, 8.7
2024/04/07 07:20:00,74.9, 9.3
2024/04/07 07:30:00,74.9, 9.6
2024/04/07 07:40:00,74.9, 9.6
2024/04/07 07:50:00,74.9,10.2
2024/04/07 08:00:00,74.9,10.9
2024/04/07 08:10:00,74.9,11.0
2024/04/07 08:20:00,74.9,11.9
2024/04/07 08:30:00,74.9,12.1
2024/04/07 08:40:00,74.9,12.5
2024/04/07 08:50:00,74.9,12.6
2024/04/07 09:00:00,74.9,12.1
2024/04/07 09:10:00,74.9,13.0
2024/04/07 09:20:00,74.9,13.3
2024/04/07 09:30:00,74.9,13.5
2024/04/07 09:40:00,74.9,13.2
2024/04/07 09:50:00,74.9,13.4
2024/04/07 10:00:00,74.9,13.9
2024/04/07 10:10:00,74.9,14.6
2024/04/07 10:20:00,74.9,15.2
2024/04/07 10:30:00,74.9,15.4
2024/04/07 10:40:00,74.9,16.6
2024/04/07 10:50:00,74.9,17.2
2024/04/07 11:00:00,74.9,17.2
2024/04/07 11:10:00,74.9,18.0
2024/04/07 11:20:00,74.9,17.4
2024/04/07 11:30:00,74.8,18.2
2024/04/07 11:40:00,74.8,18.5
2024/04/07 11:50:00,74.8,18.3
2024/04/07 12:00:00,74.8,18.5
2024/04/07 12:10:00,74.8,18.2
2024/04/07 12:20:00,74.8,18.2
2024/04/07 12:30:00,74.8,18.7
2024/04/07 12:40:00,74.8,18.4
2024/04/07 12:50:00,74.8,18.6
2024/04/07 13:00:00,74.8,17.9
2024/04/07 13:10:00,74.8,17.6
2024/04/07 13:20:00,74.8,16.6
2024/04/07 13:30:00,74.8,16.6
2024/04/07 13:40:00,74.8,17.4
2024/04/07 13:50:00,74.8,17.9
2024/04/07 14:00:00,74.8,17.6
2024/04/07 14:10:00,74.8,17.1
2024/04/07 14:20:00,74.8,17.4
2024/04/07 14:30:00,74.8,16.8
2024/04/07 14:40:00,74.8,16.6
2024/04/07 14:50:00,74.8,17.0
2024/04/07 15:00:00,74.8,17.3
2024/04/07 15:10:00,74.8,17.4
2024/04/07 15:20:00,74.8,16.7
2024/04/07 15:30:00,74.8,16.8
2024/04/07 15:40:00,74.8,16.5
2024/04/07 15:50:00,74.8,16.2
2024/04/07 16:00:00,74.8,15.9
2024/04/07 16:10:00,74.8,15.9
2024/04/07 16:20:00,74.8,15.7
2024/04/07 16:30:00,74.8,15.3
2024/04/07 16:40:00,74.8,14.8
2024/04/07 16:50:00,74.8,14.5
2024/04/07 17:00:00,74.8,14.3
2024/04/07 17:10:00,74.8,14.2
2024/04/07 17:20:00,74.8,13.8
2024/04/07 17:30:00,74.8,13.5
2024/04/07 17:40:00,74.8,13.5
2024/04/07 17:50:00,74.8,13.2
2024/04/07 18:00:00,74.8,13.0
2024/04/07 18:10:00,74.8,12.2
2024/04/07 18:20:00,74.8,12.3
2024/04/07 18:30:00,74.8,11.8
2024/04/07 18:40:00,74.8,11.5
2024/04/07 18:50:00,74.8,11.3
2024/04/07 19:00:00,74.8,11.4
2024/04/07 19:10:00,74.8,10.9
2024/04/07 19:20:00,74.8,11.0
2024/04/07 19:30:00,74.8,10.6
2024/04/07 19:40:00,74.8,10.5
2024/04/07 19:50:00,74.8,10.6
2024/04/07 20:00:00,74.8,10.3
2024/04/07 20:10:00,74.8,10.3
2024/04/07 20:20:00,74.8,10.3
2024/04/07 20:30:00,74.8,10.3
2024/04/07 20:40:00,74.8,10.1
2024/04/07 20:50:00,74.8,10.2
2024/04/07 21:00:00,74.8,10.1
2024/04/07 21:10:00,74.8,10.5
2024/04/07 21:20:00,74.8,10.3
2024/04/07 21:30:00,74.8,10.3
2024/04/07 21:40:00,74.8,10.3
2024/04/07 21:50:00,74.8,10.2
2024/04/07 22:00:00,74.8,10.0
2024/04/07 22:10:00,74.8,10.2
2024/04/07 22:20:00,74.8,10.2
2024/04/07 22:30:00,74.8,10.0
2024/04/07 22:40:00,74.8, 9.9
2024/04/07 22:50:00,74.8, 9.9
2024/04/07 23:00:00,74.8, 9.8
2024/04/07 23:10:00,74.8, 9.8
2024/04/07 23:20:00,74.8, 9.7
2024/04/07 23:30:00,74.8, 9.6
2024/04/07 23:40:00,74.8, 9.5
2024/04/07 23:50:00,74.8, 9.5
